Weather in Nizhniy Tagil

Russia / Sverdlovsk Oblast     57°54′27″N   59°58′19″E
temp.,
°C
wind,
m/s
gust,
m/s
humid.,
%
clouds,
%
prec.,
mm/h
press.,
hPa
HPBL,
m
12 april, mon
mon1223:00+6wsw3897100 0.5 1030353
02:00+5wnw2799100 0.1 1031315
05:00+3w2498100 0.1 1033184
08:00+3w2588100 0.0 1035155
11:00+8wnw3875100 0.0 1035775
14:00+8nw467329 0.0 1037844
17:00+8nw46645 0.0 1038883
20:00+4wnw22840 0.0 104020
13 april, tue
tue1323:00+1wnw22830 0.0 104113
02:000wsw11805 0.0 104111
05:000sw11795 0.0 104211
08:00+3sw23685 0.0 1041114
11:00+9sw23455 0.0 1040566
14:00+12sw243437 0.0 1038929
17:00+13wsw35405 0.0 10361009
20:00+8sw2262100 0.0 103512
14 april, wed
wed1423:00+6sw2680100 0.0 1033111
02:00+7wsw31092100 0.0 1032254
05:00+7wsw31092100 0.0 1031299
08:00+9wsw3118187 0.0 1031398
11:00+13w4869100 0.0 1030619
14:00+16w57578 0.0 10281135
17:00+16w48565 0.0 10271351
20:00+11wsw227775 0.0 102625
15 april, thu
thu1523:00+9wsw228652 0.0 102637
02:00+7sw27886 0.0 1025117
05:00+6sw27905 0.0 1024129
08:00+9sw311795 0.0 1023360
11:00+15w59535 0.0 1021984
14:00+17w584615 0.0 10201468
17:00+18w484927 0.0 10181634
20:00+13wsw227288 0.0 101723
16 april, fri
fri1623:00+10wsw118289 0.0 101711
02:00+10wnw1181100 0.0 101517
05:00+7nne3589100 0.1 1016277
08:00+6nne348992 0.1 1016384
11:00+7ene2280100 0.2 1015567
14:00+9ne2176100 0.0 1013791
17:00+7ne4584100 0.0 1011493
20:00+3nne4796100 0.4 1009348